EHI
0 0 0 0 0 0 0 0 0 0 0 0 0 0 0 0 0 0 0 0 0 0 0 0 0 0 0 0 0 0 0 0 0 0 0 0 0 0
0 0 0 0 0 0 0 0 0 0 0 0 0 0 0 0 0 0 0 0 0 0 0 0 0 0 0 0 0 0 0 0 0 0 0 0 0 0
0 0 0 0 0 0 0 0 0 0 0 0 0 0 0 0 0 0 0 0 0 0 0 0 0 0 0 0 0 0 0 0 0 0 0 0 0 0
0 0 0 0 0 0 0 0 0 0 0 0 0 0 0 0 0 0 0 0 0 0 0 0 0 0 0 0 0 0 0 0 0 0 0 0 0 0
0 0 0 0 0 0 0 0 0 0 0 0 0 0 0 0 0 0 0 0 0 0 0 0 0 0 0 0 0 0 0 0 0 0 0 0 0 0
0 0 0 0 0 0 0 0 0 0 0 0 0 0 0 0 0 0 0 0 0 0 0 0 0 0 0 0 0 0 0 0 0 0 0 0 0 0
0 0 0 0 0 0 0 0 0 0 0 0 0 0 0 0 0 0 0 0 0 0 0 0 0 0 0 0 0 0 0 0 0 0 0 0 0 0
0 0 0 0 0 0 0 0 0 0 0 0 0 0 0 0 0 0 0 0 0 0 0 0 0 0 0 0 0 0 0 0 0 0 0 0 0 0
0 0 0 0 0 0 0 0 0 0 0 0 0 0 0 0 0 0 0 0 0 0 0 0 0 0 0 0 0 0 0 0 0 0 0 0 0 0
0 0 0 0 0 0 0 0 0 0 0 0 0 0 0 0 0 0 0 0 0 0 0 0 0 0 0 0 0 0 0 0 0 0 0 0 0 0
0 0 0 0 0 0 0 0 0 0 0 0 0 0 0 0 0 0 0 0 0 0 0 0 0 0 0 0 0 0 0 0 0 0 0 0 0 0
0 0 0 0 0 0 0 0 0 0 0 0 0 0 0 0 0 0 0 0 0 0 0 0 0 0 0 0 0 0 0 0 0 0 0 0 0 0
0 0 0 0 0 0 0 0 0 0 0 0 0 0 0 0 0 0 0 0 0 0 0 0 0 0 0 0 0 0 0 0 0 0 0 0 0 0
0 0 0 0 0 0 0 0 0 0 0 0 0 0 0 0 0 0 0 0 0 0 0 0 0 0 0 0 0 0 0 0 0 0 0 0 0 0
0 0 0 0 0 0 0 0 0 0 0 0 0 0 0 0 0 0 0 0 0 0 0 0 0 0 0 0 0 0 0 0 0 0 0 0 0 0
0 0 0 0 0 0 0 0 0 0 0 0 0 0 0 0 0 0 0 0 0 0 0 0 0 0 0 0 0 0 0 0 0 0 0 0 0 0
0 0 0 0 0 0 0 0 0 0 0 0 0 0 0 0 0 0 0 0 0 0 0 0 0 0 0 0 0 0 0 0 0 0 0 0 0 0
0 0 0 0 0 0 0 0 0 0 0 0 0 0 0 0 0 0 0 0 0 0 0 0 0 0 0 0 0 0 0 0 0 0 0 0 0 0
0 0 0 0 0 0 0 0 0 0 0 0 0 0 0 0 0 0 0 0 0 0 0 0 0 0 0 0 0 0 0 0 0 0 0 0 0 0
0 0 0 0 0 0 0 0 0 0 0 0 0 0 0 0 0 0 0 0 0 0 0 0 0 0 0 0 0 0 0 0 0 0 0 0 0 0
0 0 0 0 0 0 0 0 0 0 0 0 0 0 0 0 0 0 0 0 0 0 0 0 0 0 0 0 0 0 0 0 0 0 0 0 0 0
0 0 0 0 0 0 0 0 0 0 0 0 0 0 0 0 0 0 0 0 0 0 0 0 0 0 0 0 0 0 0 0 0 0 0 0 0 0
0 0 0 0 0 0 0 0 0 0 0 0 0 0 0 0 0 0 0 0 0 0 0 0 0 0 0 0 0 0 0 0 0 0 0 0 0 0
Wind_Speed
3 3 3 3 3 3 3 3 4 4 4 5 4 5 5 5 6 6 6 8 9 8 8 8 8 9 9 8 9 10 10 11 13 14 14 15 15 15
2 3 3 3 2 2 3 4 4 4 4 4 4 5 5 5 7 6 6 9 8 9 9 9 9 9 9 9 9 10 11 12 13 14 15 15 15 14
3 3 3 3 3 2 3 3 3 3 4 4 4 5 6 6 6 6 6 6 5 8 9 10 10 9 9 9 9 10 11 12 13 13 14 15 15 14
3 3 3 3 4 3 3 3 3 3 3 5 4 4 6 6 6 7 6 5 5 8 10 10 10 10 10 9 9 10 12 12 13 13 14 14 15 15
3 3 3 3 4 3 3 3 3 3 3 3 4 4 4 4 5 5 6 5 5 6 9 9 9 10 10 10 10 11 12 12 13 13 14 15 15 15
3 3 3 3 4 4 3 3 3 3 2 2 3 3 3 5 4 5 5 5 5 5 7 7 8 9 10 10 10 11 12 12 13 14 14 14 14 15
3 3 3 3 4 3 3 3 2 2 2 2 2 3 3 4 4 4 5 5 5 4 6 6 6 5 6 8 9 11 12 13 14 14 15 14 14 14
3 2 2 3 3 3 3 3 2 2 2 2 2 3 4 4 4 4 4 4 4 4 6 6 5 5 5 5 9 12 12 13 13 14 14 15 15 15
2 2 2 2 3 2 1 2 2 4 4 3 3 3 4 4 4 4 4 5 4 4 5 5 5 5 5 6 10 12 13 13 14 15 14 14 14 14
2 2 2 2 2 1 1 1 2 3 3 2 2 3 3 4 4 4 4 4 4 3 4 4 5 5 6 5 8 11 13 14 14 15 15 15 15 14
2 2 2 1 1 1 0 0 1 2 4 4 5 4 5 5 5 2 3 3 3 3 3 3 4 6 5 4 6 10 12 13 14 15 15 15 16 14
1 1 1 1 1 1 1 1 0 1 1 2 3 4 4 4 6 3 3 3 3 3 4 4 4 5 5 4 5 6 7 10 13 14 15 15 14 8
1 1 0 1 1 1 1 0 1 1 0 1 2 2 3 3 3 3 3 3 3 2 3 4 3 4 4 5 5 5 6 7 8 9 11 13 14 10
1 1 0 1 1 2 1 3 3 2 1 1 1 2 2 3 3 3 4 3 3 3 4 4 3 4 4 4 5 6 6 6 7 7 7 11 11 11
1 1 1 2 2 2 2 3 2 1 1 1 1 2 2 2 2 3 3 3 3 2 3 4 3 4 4 4 5 6 6 6 6 7 8 8 7 7
0 2 3 3 2 2 2 1 1 1 1 0 1 1 2 2 2 3 3 3 3 3 3 4 5 4 4 5 5 6 6 6 7 7 8 7 6 5
1 1 1 1 1 1 1 1 1 1 1 1 1 1 1 2 2 2 3 3 3 4 5 4 5 4 4 4 4 5 6 6 6 7 7 7 6 5
2 1 1 1 0 0 0 1 1 1 1 1 1 1 1 2 2 2 2 3 3 3 4 5 5 5 3 2 2 5 5 6 7 7 7 6 7 6
2 1 0 0 0 0 0 0 0 1 0 0 1 1 1 1 2 2 2 3 3 3 4 4 4 5 5 5 4 2 5 6 7 7 6 6 7 8
1 1 0 0 1 1 1 0 0 0 0 0 1 1 1 1 1 2 2 3 3 3 4 3 3 4 4 5 5 5 6 6 6 7 7 6 6 7
0 0 0 1 1 1 1 0 0 0 0 0 1 1 1 1 1 2 2 3 3 3 4 4 4 6 4 4 4 5 5 5 6 6 7 7 6 6
0 1 1 1 1 1 1 1 1 1 1 1 1 1 1 1 1 2 2 2 2 3 4 4 4 4 3 3 5 6 7 7 7 8 8 6 4 5
1 1 1 1 1 1 1 1 1 1 1 1 1 1 1 1 1 2 2 2 2 3 4 4 4 3 3 4 5 6 8 9 7 6 5 6 8 11
Wind_Direction
259 266 272 275 273 278 278 275 278 292 301 308 313 322 328 331 339 334 337 351 348 347 344 341 340 340 336 334 331 328 324 321 319 318 315 312 308 305
266 270 274 279 279 276 274 275 277 284 289 306 312 317 327 328 336 334 339 345 347 346 345 342 339 335 333 331 329 326 324 322 320 318 316 315 312 308
261 264 274 281 280 280 278 276 278 282 285 301 313 320 326 329 331 335 335 334 341 349 344 342 340 337 335 332 329 328 326 327 327 325 324 321 318 315
258 263 270 279 278 276 273 273 274 278 283 294 307 317 322 327 330 332 334 335 337 347 343 341 339 339 339 338 337 335 333 331 330 328 325 322 319 316
254 261 267 269 272 278 275 274 277 280 279 283 303 316 319 326 328 331 334 334 335 338 341 342 345 349 341 338 338 337 335 333 332 330 327 325 322 320
257 260 265 265 269 274 273 278 282 283 287 290 305 313 317 323 322 326 328 332 331 334 338 335 340 343 345 342 339 338 337 335 333 332 330 329 327 325
255 261 268 283 293 293 292 287 286 289 297 301 307 315 324 324 319 316 316 322 326 338 331 330 333 334 342 346 345 342 339 338 336 335 334 333 333 330
253 261 265 263 284 297 306 322 316 282 273 280 293 297 309 316 314 313 317 322 321 341 328 325 331 331 339 342 349 347 345 343 340 339 339 339 337 335
248 250 261 276 277 274 300 340 347 339 321 290 277 293 303 310 310 312 316 318 314 327 324 317 330 326 332 337 342 342 344 346 345 343 341 339 337 335
260 259 259 270 289 301 314 350 356 356 337 327 317 322 329 324 314 309 309 317 316 336 339 316 324 321 321 325 341 342 342 343 343 344 344 342 337 335
277 277 269 266 325 360 84 52 15 12 31 34 24 18 10 3 357 348 339 334 330 339 353 324 319 319 312 317 335 340 339 339 340 343 344 343 340 334
272 280 300 317 352 357 230 194 223 350 10 24 27 21 13 15 11 2 339 331 332 330 358 334 326 332 319 317 330 333 334 339 342 343 344 347 348 342
233 255 286 358 16 19 346 342 26 26 28 29 23 12 8 9 6 2 353 336 327 325 341 332 320 326 312 309 318 327 332 333 335 338 342 348 351 349
202 219 113 69 61 57 56 54 68 68 65 50 30 9 4 0 353 351 355 349 335 317 322 327 310 316 317 312 313 324 329 331 334 336 338 341 344 346
165 111 84 92 93 92 65 68 81 74 71 50 15 352 347 344 350 349 352 355 340 333 334 330 318 308 304 304 311 315 320 325 335 338 337 336 335 336
108 102 94 94 90 71 82 86 50 44 52 46 354 353 353 351 352 347 341 343 340 340 343 337 326 312 304 302 300 308 318 319 328 334 330 325 326 328
113 99 96 100 100 71 60 50 39 42 36 26 23 5 353 348 349 347 339 339 345 340 338 339 329 311 291 295 303 309 318 320 326 330 329 328 328 331
111 129 139 143 153 120 80 45 15 0 3 7 359 350 338 336 340 342 340 340 341 337 335 336 335 330 311 271 270 308 320 325 327 328 326 324 325 332
116 132 164 200 213 226 225 228 273 302 318 356 342 333 326 327 332 336 338 335 335 334 333 334 338 340 342 341 330 313 320 322 324 324 325 321 314 317
91 120 189 236 248 240 246 249 258 302 333 329 322 315 314 313 319 327 331 329 329 330 329 331 335 335 325 318 312 311 312 310 317 320 322 319 309 304
153 191 237 240 245 247 251 242 239 238 272 282 285 294 294 295 308 315 316 322 324 324 323 321 318 316 300 292 297 307 315 309 298 302 314 319 322 328
291 263 256 262 251 233 229 217 216 231 239 252 273 282 288 286 292 299 306 310 316 317 313 313 319 323 323 319 319 318 319 323 316 300 286 279 304 322
284 292 299 281 261 246 219 217 225 231 241 252 264 269 279 285 286 288 295 301 312 321 324 324 327 326 322 316 317 318 321 325 327 331 328 312 289 283